Terug naar catalogus

COSMOS 1823 DEB

ActiefLEO
NORAD 18727·DEBRIS·🇷🇺 Russia

Gelanceerd Feb 20, 1987 vanaf Plesetsk Cosmodrome

Loading…

Volgende Passages (komende 24 uur)

TLE

VersSource: Space-Track

Epoch: Sep 14, 2026, 09:55 UTC

1 18727U 87020E   26257.41362589  .00000027  00000-0  24603-3 0  9999
2 18727  73.3562 245.8371 0087543 162.2208 271.5624 12.65208653788111

Volg COSMOS 1823 DEB in realtime met AllMySat

Download on the App Store